When you browse on this site, cookies collect data to enhance your experience and personalize the content and advertising you see.
Visit our Privacy Policy to learn more. By continuing to use the site, you agree to this use of cookies and data.
  • In Switzerland
  • List of Countries
  • For 7 days
  • Water Temperature
  • Satellite Maps
  • Weather Map
  • Weather Widgets
  • user-avatar
    Login

    Hourly Weather Artashat

    Today, 20 March, Wednesday

    Time Temperature Precipitation Wind Pressure Humidity
    00:00 -7°C° 0 mm 2 mps 600 mmHg 53%
    01:00 -7°C° 0 mm 2 mps 599 mmHg 53%
    02:00 -7°C° 0 mm 2 mps 599 mmHg 53%
    03:00 -7°C° 0 mm 2 mps 599 mmHg 53%
    04:00 -7°C° 0 mm 2 mps 599 mmHg 54%
    05:00 -7°C° 0 mm 2 mps 599 mmHg 54%
    06:00 -7°C° 0 mm 2 mps 599 mmHg 55%
    07:00 -6°C° 0 mm 2 mps 599 mmHg 54%
    08:00 -2°C° 0 mm 1 mps 599 mmHg 53%
    09:00 -1°C° 0 mm 1 mps 600 mmHg 52%
    10:00 0°C° 0 mm 1 mps 600 mmHg 52%
    11:00 +1°C° 0 mm 1 mps 600 mmHg 51%
    12:00 +2°C° 0 mm 1 mps 600 mmHg 50%
    13:00 +3°C° 0 mm 1 mps 600 mmHg 50%
    14:00 +3°C° 0 mm 1 mps 599 mmHg 49%
    15:00 +4°C° 0 mm 1 mps 599 mmHg 48%
    16:00 +3°C° 0 mm 1 mps 599 mmHg 51%
    17:00 +2°C° 0 mm 1 mps 599 mmHg 53%
    18:00 +2°C° 0 mm 1 mps 599 mmHg 56%
    19:00 +1°C° 0 mm 1 mps 599 mmHg 58%
    20:00 +1°C° 0 mm 1 mps 599 mmHg 60%
    21:00 0°C° 0 mm 1 mps 600 mmHg 61%
    22:00 0°C° 0 mm 1 mps 599 mmHg 62%
    23:00 0°C° 0 mm 1 mps 599 mmHg 63%

    Tomorrow, 21 March, Thursday

    Time Temperature Precipitation Wind Pressure Humidity
    00:00 -1°C° 0 mm 1 mps 599 mmHg 65%
    01:00 -1°C° 0 mm 1 mps 599 mmHg 65%
    02:00 -1°C° 0 mm 1 mps 599 mmHg 66%
    03:00 -2°C° 0 mm 1 mps 599 mmHg 67%
    04:00 -2°C° 0 mm 1 mps 599 mmHg 68%
    05:00 -2°C° 0 mm 1 mps 599 mmHg 69%
    06:00 -2°C° 0 mm 1 mps 599 mmHg 70%
    07:00 -1°C° 0 mm 1 mps 599 mmHg 67%
    08:00 0°C° 0 mm 1 mps 600 mmHg 65%
    09:00 +2°C° 0 mm 1 mps 600 mmHg 62%
    10:00 +2°C° 0 mm 1 mps 600 mmHg 60%
    11:00 +3°C° 0 mm 1 mps 600 mmHg 58%
    12:00 +4°C° 0 mm 1 mps 600 mmHg 57%
    13:00 +5°C° 0 mm 1 mps 600 mmHg 56%
    14:00 +5°C° 0 mm 1 mps 600 mmHg 54%
    15:00 +5°C° 0 mm 1 mps 600 mmHg 53%
    16:00 +5°C° 0 mm 1 mps 599 mmHg 55%
    17:00 +4°C° 0 mm 1 mps 599 mmHg 57%
    18:00 +3°C° 0 mm 1 mps 599 mmHg 60%
    19:00 +3°C° 0 mm 1 mps 599 mmHg 61%
    20:00 +2°C° 0 mm 1 mps 599 mmHg 63%
    21:00 +1°C° 0 mm 1 mps 600 mmHg 65%
    22:00 +1°C° 0 mm 1 mps 600 mmHg 65%
    23:00 +1°C° 0 mm 1 mps 600 mmHg 66%

    Day after tomorrow, 22 March, Friday

    Time Temperature Precipitation Wind Pressure Humidity
    00:00 0°C° 0 mm 1 mps 600 mmHg 67%
    01:00 0°C° 0 mm 1 mps 600 mmHg 67%
    02:00 0°C° 0 mm 1 mps 599 mmHg 68%
    03:00 -1°C° 0 mm 1 mps 599 mmHg 68%
    04:00 -1°C° 0 mm 1 mps 599 mmHg 68%
    05:00 -1°C° 0 mm 1 mps 599 mmHg 69%
    06:00 -1°C° 0 mm 1 mps 599 mmHg 69%
    07:00 0°C° 0 mm 1 mps 600 mmHg 65%
    08:00 +1°C° 0 mm 1 mps 600 mmHg 61%
    09:00 +2°C° 0 mm 1 mps 601 mmHg 57%
    10:00 +2°C° 0 mm 1 mps 600 mmHg 56%
    11:00 +3°C° 0 mm 1 mps 600 mmHg 54%
    12:00 +4°C° 0 mm 1 mps 600 mmHg 53%
    13:00 +4°C° 0 mm 1 mps 600 mmHg 52%
    14:00 +4°C° 0 mm 1 mps 599 mmHg 52%
    15:00 +3°C° 0 mm 2 mps 599 mmHg 51%
    16:00 +3°C° 0 mm 2 mps 599 mmHg 53%
    17:00 +2°C° 0 mm 2 mps 599 mmHg 54%
    18:00 +2°C° 0 mm 2 mps 599 mmHg 55%
    19:00 +1°C° 0 mm 2 mps 599 mmHg 56%
    20:00 -1°C° 0 mm 2 mps 600 mmHg 58%
    21:00 -1°C° 0 mm 2 mps 600 mmHg 59%
    22:00 -2°C° 0 mm 2 mps 600 mmHg 60%
    23:00 -2°C° 0 mm 2 mps 600 mmHg 62%

    23 March, Saturday

    Time Temperature Precipitation Wind Pressure Humidity
    00:00 -3°C° 0 mm 2 mps 600 mmHg 63%
    01:00 -3°C° 0 mm 2 mps 600 mmHg 64%
    02:00 -3°C° 0 mm 2 mps 600 mmHg 65%
    03:00 -4°C° 0 mm 2 mps 600 mmHg 66%
    04:00 -2°C° 0 mm 1 mps 600 mmHg 67%
    05:00 -2°C° 0 mm 1 mps 600 mmHg 67%
    06:00 -3°C° 0 mm 1 mps 600 mmHg 67%
    07:00 -2°C° 0 mm 1 mps 600 mmHg 62%
    08:00 -1°C° 0 mm 1 mps 600 mmHg 58%
    09:00 0°C° 0 mm 1 mps 601 mmHg 53%
    10:00 +1°C° 0 mm 1 mps 601 mmHg 49%
    11:00 +2°C° 0 mm 1 mps 601 mmHg 46%
    12:00 +3°C° 0 mm 1 mps 600 mmHg 43%
    13:00 +3°C° 0 mm 1 mps 600 mmHg 41%
    14:00 +4°C° 0 mm 1 mps 600 mmHg 40%
    15:00 +4°C° 0 mm 1 mps 600 mmHg 39%
    16:00 +4°C° 0 mm 1 mps 599 mmHg 41%
    17:00 +3°C° 0 mm 1 mps 599 mmHg 43%
    18:00 +2°C° 0 mm 1 mps 599 mmHg 46%
    19:00 +2°C° 0 mm 1 mps 599 mmHg 48%
    20:00 +1°C° 0 mm 1 mps 599 mmHg 50%
    21:00 0°C° 0 mm 1 mps 599 mmHg 53%
    22:00 0°C° 0 mm 1 mps 599 mmHg 54%
    23:00 -1°C° 0 mm 1 mps 599 mmHg 55%

    24 March, Sunday

    Time Temperature Precipitation Wind Pressure Humidity
    00:00 -1°C° 0 mm 1 mps 599 mmHg 56%
    01:00 -1°C° 0 mm 1 mps 599 mmHg 55%
    02:00 -2°C° 0 mm 1 mps 599 mmHg 54%
    03:00 -2°C° 0 mm 1 mps 599 mmHg 53%
    04:00 -2°C° 0 mm 1 mps 598 mmHg 53%
    05:00 -2°C° 0 mm 1 mps 598 mmHg 52%
    06:00 -2°C° 0 mm 1 mps 598 mmHg 51%
    07:00 -3°C° 0 mm 2 mps 599 mmHg 49%
    08:00 -2°C° 0 mm 2 mps 599 mmHg 46%
    09:00 -1°C° 0 mm 2 mps 600 mmHg 43%
    10:00 +1°C° 0 mm 2 mps 600 mmHg 41%
    11:00 +2°C° 0 mm 2 mps 600 mmHg 38%
    12:00 +3°C° 0 mm 2 mps 600 mmHg 36%
    13:00 +5°C° 0 mm 1 mps 600 mmHg 35%
    14:00 +6°C° 0 mm 1 mps 600 mmHg 34%
    15:00 +6°C° 0 mm 1 mps 600 mmHg 34%
    16:00 +5°C° 0 mm 1 mps 599 mmHg 36%
    17:00 +5°C° 0 mm 1 mps 599 mmHg 39%
    18:00 +4°C° 0 mm 1 mps 599 mmHg 41%
    19:00 +3°C° 0 mm 1 mps 599 mmHg 44%
    20:00 +1°C° 0 mm 0 mps 599 mmHg 46%
    21:00 0°C° 0 mm 0 mps 599 mmHg 48%
    22:00 0°C° 0 mm 0 mps 599 mmHg 49%
    23:00 0°C° 0 mm 0 mps 599 mmHg 49%

    25 March, Monday

    Time Temperature Precipitation Wind Pressure Humidity
    00:00 -1°C° 0 mm 0 mps 599 mmHg 50%
    01:00 -1°C° 0 mm 0 mps 598 mmHg 51%
    02:00 -1°C° 0 mm 0 mps 598 mmHg 51%
    03:00 -2°C° 0 mm 0 mps 598 mmHg 52%
    04:00 -2°C° 0 mm 0 mps 598 mmHg 52%
    05:00 -2°C° 0 mm 0 mps 598 mmHg 52%
    06:00 -1°C° 0 mm 1 mps 597 mmHg 52%
    07:00 0°C° 0 mm 1 mps 598 mmHg 48%
    08:00 +2°C° 0 mm 1 mps 598 mmHg 43%
    09:00 +3°C° 0 mm 1 mps 599 mmHg 39%
    10:00 +4°C° 0 mm 1 mps 599 mmHg 37%
    11:00 +4°C° 0 mm 2 mps 599 mmHg 36%
    12:00 +5°C° 0 mm 2 mps 599 mmHg 34%
    13:00 +6°C° 0 mm 2 mps 599 mmHg 34%
    14:00 +6°C° 0 mm 2 mps 599 mmHg 33%
    15:00 +7°C° 0 mm 2 mps 598 mmHg 33%
    16:00 +7°C° 0 mm 1 mps 598 mmHg 36%
    17:00 +7°C° 0 mm 1 mps 598 mmHg 39%
    18:00 +6°C° 0 mm 1 mps 598 mmHg 42%
    19:00 +5°C° 0 mm 1 mps 598 mmHg 43%
    20:00 +4°C° 0 mm 1 mps 598 mmHg 45%
    21:00 +3°C° 0 mm 1 mps 598 mmHg 46%
    22:00 +2°C° 0 mm 1 mps 598 mmHg 45%
    23:00 +2°C° 0 mm 1 mps 598 mmHg 44%
    Show more